Погода в Куня-Ургенче

Туркменистан     42°19′32″N   59°09′07″E
темп.,
°C
ветер,
м/с
пор.,
м/с
влажн.,
%
обл.,
%
осадки,
мм/ч
давл.,
гПа
погр.,
м
8 августа, пн
пн823:00+26ссв612340 0.0 1008295
02:00+24ссв48412 0.0 1007155
05:00+23ссв34470 0.0 100868
08:00+27ссв45342 0.0 1009226
11:00+33св331619 0.0 10102489
14:00+35ссв23126 0.0 10083241
17:00+36ссв641150 0.0 10073478
20:00+30ссв91120100 0.0 1008622
9 августа, вт
вт923:00+27ссв6113079 0.0 1010347
02:00+25ссв4940100 0.0 1009256
05:00+22с475268 0.0 1009149
08:00+26с594417 0.0 1010425
11:00+32ссв67225 0.0 10102511
14:00+35ссв66173 0.0 10093369
17:00+35ссв66175 0.0 10083554
20:00+29ссв911270 0.0 1010598
10 августа, ср
ср1023:00+24ссв611420 0.0 1011324
02:00+22с48480 0.0 1011194
05:00+21с48520 0.0 1011167
08:00+25ссв58390 0.0 1012321
11:00+31св66190 0.0 10122408
14:00+33св66170 0.0 10113010
17:00+33всв78170 0.0 10103188
20:00+28ссв912260 0.0 1012572
11 августа, чт
чт1123:00+24ссв512370 0.0 1013338
02:00+22ссв49500 0.0 1012206
05:00+21ссв47530 0.0 1013128
08:00+25св59330 0.0 1014330
11:00+31св67200 0.0 10142344
14:00+34всв66160 0.0 10132718
17:00+34всв67150 0.0 10122864
20:00+29ссв812240 0.0 1013470
12 августа, пт
пт1223:00+25ссв613390 0.0 1014327
02:00+22ссв411490 0.0 1014235
05:00+22св47460 0.0 1014109
08:00+27св47340 0.0 1015251
11:00+33св67200 0.0 10152212
14:00+35св56160 0.0 10132606
17:00+36всв66150 0.0 10122811
20:00+31ссв912250 0.0 1012397